Location: Norton
(51.3000°N, 0.8167°E)
Time: 18:03:55
(UTC+00:00)

H-2A R/B - Pass Details

Date: 03 March 2021
Orbit: 577 x 654 km, 98.5° (Epoch: 12 April)

Event Time Altitude Azimuth Distance (km) Brightness Sun altitude
Rises 18:30:03 0° 9° (N) 2,812 5.3 -8.4°
Reaches altitude 10° 18:32:19 10° 1° (N) 1,905 4.6 -8.8°
Maximum altitude 18:36:07 38° 294° (WNW) 900 3.6 -9.4°
Drops below altitude 10° 18:39:55 10° 226° (SW) 1,895 5.2 -10.0°
Sets 18:42:09 0° 218° (SW) 2,796 6.0 -10.3°
